Hourly Data Report for October 24, 2015

All times are specified in Local Standard Time (LST). Add 1 hour to adjust for Daylight Saving Time where and when it is observed.

CORAL HARBOUR A
NUNAVUT

64°11'36.000" N
83°21'34.000" W
62.20 m
2301002
71915
YZS

Download Data

Hourly Data (October 2015)
Hourly Data Report for October 24, 2015
Temp Definition
°C
Dew Point Temp Definition
°C
Rel Hum Definition
%
Wind Dir Definition
10's deg

Wind Spd Definition
km/h
Visibility Definition
km
Stn Press Definition
kPa
Hmdx Definition


Wind Chill Definition


Weather Definition


TIME
00:00 Legend Double Dagger -1.2 -1.5 98 18 16 0.4 98.30   -6 Snow,Freezing Fog
01:00 Legend Double Dagger -1.3 -1.6 98 18 10 0.4 98.21   -5 Snow,Freezing Fog
02:00 Legend Double Dagger -1.5 -1.8 98 15 4 0.4 98.13   -3 Snow,Freezing Fog
03:00 Legend Double Dagger -1.6 -1.9 98 0 1 0.4 98.07   -2 Snow,Freezing Fog
04:00 Legend Double Dagger -1.8 -2.1 98 36 12 4.8 98.03   -6 Snow,Fog
05:00 Legend Double Dagger -4.6 -6.0 90 1 53 4.8 98.04   -15 Snow,Blowing Snow
06:00 Legend Double Dagger -6.0 -7.2 91 36 53 0.4 98.10   -17 Snow,Blowing Snow
07:00 Legend Double Dagger -6.8 -8.3 89 1 50 0.4 98.20   -17 Snow,Blowing Snow
08:00 Legend Double Dagger -8.5 -10.1 88 36 55 0.4 98.28   -20 Snow,Blowing Snow
09:00 Legend Double Dagger -9.1 -10.6 89 36 65 0.4 98.37   -22 Snow,Blowing Snow
10:00 Legend Double Dagger -10.1 -12.2 85 35 61 0.4 98.44   -23 Blowing Snow
11:00 Legend Double Dagger -10.7 -13.1 83 35 59 0.4 98.55   -24 Blowing Snow
12:00 Legend Double Dagger -11.3 -13.9 81 35 54 1.6 98.72   -24 Blowing Snow
13:00 Legend Double Dagger -12.0 -14.8 80 34 37 6.4 98.85   -23 Blowing Snow
14:00 Legend Double Dagger -12.9 -16.3 76 35 54 19.3 98.85   -26 Blowing Snow
15:00 Legend Double Dagger -13.5 -16.9 76 35 39 24.1 98.95   -25 Blowing Snow
16:00 Legend Double Dagger -13.9 -17.3 76 35 38 24.1 99.01   -26 Blowing Snow
17:00 Legend Double Dagger -15.1 -18.4 76 34 40 24.1 99.06   -28 Blowing Snow
18:00 Legend Double Dagger -16.1 -19.6 75 32 41 24.1 99.14   -29 Blowing Snow
19:00 Legend Double Dagger -17.1 -20.5 75 32 34 24.1 99.21   -29 Blowing Snow
20:00 Legend Double Dagger -17.9 -21.2 76 33 22 24.1 99.24   -28 Blowing Snow
21:00 Legend Double Dagger -16.7 -19.8 77 31 23 24.1 99.24   -27 LegendNANA
22:00 Legend Double Dagger -17.2 -20.2 78 29 19 24.1 99.23   -27 Clear
23:00 Legend Double Dagger -16.8 -20.1 76 30 25 24.1 99.23   -27 LegendNANA

Notes on Data Quality.

Legend

  • E = Estimated
  • M = Missing
  • NA = Not Available
  • ‡ = Partner data that is not subject to review by the National Climate Archives
Date modified: